Flag for Germany Weather past 2 weeks in Bühl, Baden-Württemberg, Germany

Now
34 °F

Partly cloudy.


Feels Like: 29 °F
Forecast: 34 / 37 °F
Wind: 6 mph from Southwest

Location: Karlsruhe - Baden Wurttemberg

Current Time: Jan 25, 2015 at 7:33:54 PM

Latest Report: Jan 25, 2015 at 6:50 PM


Visibility: N/A

Pressure: 30.45 "Hg

Humidity: 93%

Dew point: 32 °F

Location of BühlLocation

Historic Weather in Bühl — Graph

°F

Bühl temperature yesterday

Maximum temperature yesterday: 37 °F (at 11:20 AM)
Minimum temperature yesterday: 32 °F (at 3:50 PM)
Average temperature yesterday: 34 °F

Past Weeks' High & Low Weather Summary

 TemperatureHumidityPressure
High59 °F (Jan 13, 1:20 PM)100% (Jan 16, 4:50 PM)30.45 "Hg (Jan 16, 4:50 PM)
Low27 °F (Jan 18, 5:20 AM)25% (Jan 13, 12:20 PM)29.68 "Hg (Jan 15, 4:20 PM)
Average39 °F80%30.01 "Hg
* Reported Jan 10 6:20 PM — Jan 25 6:20 PM, Bühl, Weather by CustomWeather, © 2014

Note: Actual official high and low records may vary slightly from our data, if they occured in-between our weather recording intervals... More about our weather records

Advertising

Bühl weather history for previous 24 hours

 ConditionsComfort  
Time TempWeatherWind HumidityBarometerVisibility
6:20 PM
Jan 25
34 °FPassing clouds.5 mph93%30.45 "Hg6 mi
5:50 PM34 °FPassing clouds.3 mph87%30.45 "HgN/A
5:20 PM36 °FPassing clouds.3 mph81%30.42 "HgN/A
4:50 PM36 °FPartly sunny.5 mph81%30.42 "HgN/A
4:20 PM36 °FBroken clouds.6 mph87%30.42 "HgN/A
3:50 PM37 °FBroken clouds.5 mph81%30.42 "HgN/A
3:20 PM37 °FBroken clouds.6 mph81%30.42 "HgN/A
2:50 PM37 °FPartly sunny.7 mph81%30.42 "Hg6 mi
2:20 PM37 °FPartly sunny.8 mph87%30.42 "HgN/A
1:50 PM37 °FBroken clouds.7 mph87%30.42 "HgN/A
1:20 PM37 °FBroken clouds.7 mph81%30.45 "Hg6 mi
12:50 PM37 °FBroken clouds.6 mph87%30.45 "HgN/A
12:20 PM36 °FPartly sunny.6 mph87%30.45 "Hg5 mi
11:50 AM34 °FPartly sunny.6 mph87%30.45 "HgN/A
11:20 AM34 °FPartly sunny.6 mph87%30.45 "HgN/A
10:50 AM32 °FBroken clouds.5 mph93%30.45 "HgN/A
10:20 AM32 °FBroken clouds.6 mph93%30.45 "HgN/A
9:50 AM32 °FScattered showers. Broken clouds.6 mph93%30.45 "Hg6 mi
9:20 AM32 °FLight rain. Partly sunny.5 mph93%30.45 "Hg4 mi
8:50 AM32 °FLight snow. Partly sunny.6 mph93%30.45 "Hg6 mi
8:20 AM32 °FPartly sunny.5 mph93%30.42 "Hg4 mi
7:50 AM30 °FPassing clouds.5 mph100%30.42 "Hg4 mi
7:20 AM30 °FPassing clouds.3 mph93%30.42 "Hg4 mi
6:50 AM30 °FPassing clouds.5 mph93%30.39 "Hg4 mi
6:20 AM30 °FPassing clouds.3 mph93%30.39 "Hg4 mi
5:50 AM30 °FPassing clouds.3 mph100%30.39 "Hg4 mi
5:20 AM30 °FPassing clouds.5 mph100%30.36 "Hg4 mi
10:50 PM
Jan 24
32 °FLight snow. Ice fog.6 mph100%30.27 "Hg2 mi
10:20 PM32 °FSnow. Passing clouds.6 mph100%30.27 "Hg2 mi
9:50 PM32 °FSnow. Ice fog.6 mph100%30.27 "Hg2 mi
9:20 PM32 °FSnow. Ice fog.6 mph100%30.27 "Hg2 mi
8:50 PM32 °FRain. Ice fog.6 mph93%30.24 "Hg2 mi
8:20 PM32 °FRain. Ice fog.7 mph100%30.24 "Hg2 mi
7:50 PM32 °FLight rain. Passing clouds.5 mph100%30.24 "Hg4 mi
7:20 PM32 °FLight snow. Passing clouds.5 mph100%30.21 "Hg4 mi
Weather by CustomWeather, © 2014

See weather overviewHow to use our weather pages